Flag for U.S.A. Weather past 2 weeks in Lansing, Michigan, U.S.A.

Now
62 °F

Clear.


Feels Like: 62 °F
Forecast: 63 / 80 °F
Wind: 6 mph from South

Location: Capital City Airport

Current Time: Jul 26, 2014 at 4:08:45 AM

Latest Report: Jul 26, 2014 at 2:53 AM


Visibility: 10 mi

Pressure: 29.92 "Hg

Humidity: 83%

Dew point: 57 °F

Location of LansingLocation

Historic Weather in Lansing — Graph

°F

Lansing temperature yesterday

Maximum temperature yesterday: 75 °F (at 1:53 PM)
Minimum temperature yesterday: 53 °F (at 5:53 AM)
Average temperature yesterday: 65 °F

Past Weeks' High & Low Weather Summary

 TemperatureHumidityPressure
High84 °F (Jul 21, 5:53 PM)96% (Jul 14, 6:53 AM)30.24 "Hg (Jul 14, 6:53 AM)
Low51 °F (Jul 16, 2:53 AM)39% (Jul 17, 5:53 PM)29.75 "Hg (Jul 15, 3:53 AM)
Average68 °F69%30.02 "Hg
* Reported Jul 11 2:53 AM — Jul 26 2:53 AM, Lansing, Weather by CustomWeather, © 2014

Note: Actual official high and low records may vary slightly from our data, if they occured in-between our weather recording intervals... More about our weather records

Advertising

Lansing weather history for previous 24 hours

 ConditionsComfort  
Time TempWeatherWind HumidityBarometerVisibility
2:53 AM
Jul 26
62 °FClear.6 mph83%29.92 "Hg10 mi
1:53 AM63 °FClear.8 mph81%29.94 "Hg10 mi
12:53 AM64 °FClear.7 mph78%29.96 "Hg10 mi
11:53 PM
Jul 25
65 °FPassing clouds.8 mph73%29.95 "Hg10 mi
10:53 PM65 °FClear.7 mph73%29.96 "Hg10 mi
9:53 PM67 °FSunny.6 mph66%29.95 "Hg10 mi
8:53 PM70 °FOvercast.10 mph57%29.96 "Hg10 mi
7:53 PM72 °FPartly sunny.10 mph53%29.97 "Hg10 mi
6:53 PM73 °FScattered clouds.13 mph46%29.99 "Hg10 mi
5:53 PM74 °FPassing clouds.10 mph52%29.97 "Hg10 mi
4:53 PM74 °FPartly sunny.7 mph50%29.97 "Hg10 mi
3:53 PM75 °FPartly sunny.6 mph48%29.98 "Hg10 mi
2:53 PM75 °FScattered clouds.7 mph47%29.99 "Hg10 mi
1:53 PM75 °FSunny.N/A43%30.01 "Hg10 mi
12:53 PM73 °FSunny.9 mph46%30.03 "Hg10 mi
11:53 AM72 °FSunny.6 mph52%30.05 "Hg10 mi
10:53 AM70 °FSunny.N/A55%30.07 "Hg10 mi
9:53 AM66 °FSunny.10 mph65%30.09 "Hg10 mi
8:53 AM60 °FSunny.No wind78%30.09 "Hg10 mi
7:53 AM59 °FSunny.N/A78%30.08 "Hg10 mi
6:53 AM53 °FClear.5 mph89%30.05 "Hg10 mi
5:53 AM53 °FClear.3 mph89%30.06 "Hg10 mi
4:53 AM54 °FClear.No wind90%30.07 "Hg10 mi
Weather by CustomWeather, © 2014

See weather overviewHow to use our weather pages